Tracking 25689 objects as of 7-Jul-2022
HD Live streaming from Space Station
objects crossing your sky now

FENGYUN 1C DEB

Track FENGYUN 1C DEB now!
10-day predictions


NORAD ID: 30508
Int'l Code: 1999-025AHW
Perigee: 613.1 km
Apogee: 969.5 km
Inclination: 99.2 °
Period: 100.5 minutes
Semi major axis: 7162 km
RCS: 0.0117 m2 (small)
Launch date: May 10, 1999
Source: People's Republic of China (PRC)
Launch site: Taiyaun Space Center, China (TSC)

Note: This is SATELLITE DEBRIS
aabbcc
Your satellite tracking list
Your tracking list is empty




NASA's NSSDC Master Catalog

Two Line Element Set (TLE):
1 30508U 99025AHW 22187.96895742  .00003053  00000-0  81847-3 0  9993
2 30508  99.2010  85.2524 0248771 207.6149 164.4194 14.32267584797579
Source of the keplerian elements: AFSPC